�������l�o���
Date,Time,MP-1(��Sv/h),MP-2(��Sv/h),MP-3(��Sv/h),MP-4(��Sv/h),MP-5(��Sv/h),MP-6(��Sv/h),MP-7(��Sv/h),MP-8(��Sv/h),����,����(m/s),���J
2019/05/15,00:00,0.775,1.133,0.779,1.436,1.054,0.443,0.776,0.731,��,4.9,�L
2019/05/15,00:10,0.775,1.134,0.781,1.433,1.053,0.442,0.776,0.730,��,4.4,�L
2019/05/15,00:20,0.775,1.136,0.781,1.431,1.053,0.442,0.777,0.732,��,4.6,�L
2019/05/15,00:30,0.776,1.132,0.781,1.435,1.052,0.443,0.775,0.734,��,4.8,�L
2019/05/15,00:40,0.775,1.132,0.780,1.433,1.052,0.443,0.776,0.733,��,3.9,�L
2019/05/15,00:50,0.775,1.130,0.780,1.432,1.050,0.442,0.775,0.732,��,3.6,�L
2019/05/15,01:00,0.773,1.128,0.779,1.430,1.046,0.441,0.774,0.731,��,3.6,�L
2019/05/15,01:10,0.770,1.124,0.777,1.428,1.046,0.443,0.772,0.732,��,3.8,�L
2019/05/15,01:20,0.769,1.120,0.776,1.424,1.040,0.442,0.771,0.731,��쓌,3.7,�L
2019/05/15,01:30,0.768,1.118,0.775,1.425,1.036,0.440,0.768,0.729,��쓌,6.1,�L
2019/05/15,01:40,0.766,1.112,0.774,1.420,1.031,0.440,0.769,0.726,��,7.2,�L
2019/05/15,01:50,0.764,1.108,0.770,1.417,1.027,0.438,0.765,0.725,��,6.1,�L
2019/05/15,02:00,0.759,1.098,0.768,1.411,1.021,0.437,0.766,0.721,��,6.0,�L
2019/05/15,02:10,0.756,1.091,0.766,1.403,1.014,0.435,0.764,0.722,��,6.1,�L
2019/05/15,02:20,0.753,1.086,0.762,1.398,1.009,0.434,0.762,0.721,��,5.5,�L
2019/05/15,02:30,0.752,1.077,0.761,1.388,1.006,0.435,0.760,0.719,��쓌,4.8,�L
2019/05/15,02:40,0.749,1.079,0.757,1.383,1.004,0.434,0.758,0.717,��,5.2,�L
2019/05/15,02:50,0.748,1.077,0.756,1.382,1.003,0.433,0.757,0.717,��,4.7,�L
2019/05/15,03:00,0.746,1.074,0.756,1.378,0.999,0.435,0.757,0.716,��,3.9,�L
2019/05/15,03:10,0.746,1.073,0.754,1.374,0.998,0.435,0.758,0.716,��,4.8,�L
2019/05/15,03:20,0.745,1.072,0.755,1.372,0.997,0.434,0.757,0.715,��,6.0,�L
2019/05/15,03:30,0.742,1.070,0.754,1.369,0.996,0.434,0.756,0.715,��,5.8,�L
2019/05/15,03:40,0.742,1.068,0.753,1.366,0.992,0.435,0.755,0.714,��,4.1,�L
2019/05/15,03:50,0.740,1.063,0.751,1.363,0.992,0.436,0.754,0.715,��,3.7,�L
2019/05/15,04:00,0.741,1.065,0.750,1.360,0.988,0.434,0.756,0.714,��,2.9,�L
2019/05/15,04:10,0.739,1.063,0.748,1.357,0.989,0.432,0.753,0.713,-,CALM,�L
2019/05/15,04:20,0.738,1.061,0.746,1.355,0.988,0.433,0.753,0.714,�쓌,2.3,�L
2019/05/15,04:30,0.738,1.062,0.747,1.354,0.986,0.434,0.752,0.715,��쓌,1.4,�L
2019/05/15,04:40,0.738,1.063,0.746,1.352,0.988,0.434,0.752,0.714,��쓌,3.7,�L
2019/05/15,04:50,0.738,1.064,0.746,1.354,0.988,0.431,0.753,0.714,��쓌,5.6,�L
2019/05/15,05:00,0.737,1.062,0.748,1.352,0.988,0.433,0.752,0.712,��,6.5,�L
2019/05/15,05:10,0.740,1.064,0.746,1.352,0.986,0.431,0.754,0.713,��,7.3,�L
2019/05/15,05:20,0.738,1.062,0.744,1.353,0.989,0.431,0.753,0.713,��,8.1,�L
2019/05/15,05:30,0.740,1.062,0.745,1.350,0.986,0.433,0.753,0.715,��,8.5,�L
2019/05/15,05:40,0.737,1.063,0.744,1.351,0.984,0.432,0.752,0.716,��,7.5,�L
2019/05/15,05:50,0.738,1.062,0.746,1.349,0.984,0.432,0.752,0.713,��,5.8,�L
2019/05/15,06:00,0.737,1.062,0.744,1.351,0.985,0.432,0.752,0.714,��,5.0,�L
2019/05/15,06:10,0.739,1.061,0.743,1.349,0.984,0.431,0.750,0.714,��,5.3,�L
2019/05/15,06:20,0.738,1.065,0.741,1.348,0.985,0.432,0.752,0.714,��,6.0,�L
2019/05/15,06:30,0.738,1.063,0.741,1.349,0.989,0.430,0.752,0.715,��,6.8,�L
2019/05/15,06:40,0.737,1.060,0.740,1.346,0.986,0.432,0.754,0.715,��,7.6,�L
2019/05/15,06:50,0.736,1.062,0.743,1.349,0.987,0.431,0.754,0.716,��쓌,7.7,�L
2019/05/15,07:00,0.737,1.061,0.741,1.347,0.986,0.431,0.754,0.714,��쓌,7.4,�L
2019/05/15,07:10,0.736,1.062,0.739,1.349,0.984,0.431,0.754,0.716,��쓌,7.5,�L
2019/05/15,07:20,0.736,1.062,0.740,1.350,0.987,0.431,0.754,0.716,��쓌,7.0,�L
2019/05/15,07:30,0.736,1.063,0.740,1.348,0.986,0.432,0.754,0.716,��쓌,6.9,�L
2019/05/15,07:40,0.736,1.060,0.740,1.349,0.984,0.430,0.752,0.716,��쓌,7.0,�L
2019/05/15,07:50,0.736,1.063,0.741,1.348,0.982,0.430,0.754,0.715,��쓌,7.3,�L
2019/05/15,08:00,0.738,1.061,0.741,1.349,0.984,0.431,0.754,0.715,��쓌,8.3,��
2019/05/15,08:10,0.736,1.065,0.740,1.349,0.984,0.430,0.752,0.716,��쓌,8.2,��
2019/05/15,08:20,0.736,1.061,0.739,1.349,0.986,0.429,0.754,0.715,��쓌,8.9,��
2019/05/15,08:30,0.736,1.062,0.737,1.351,0.987,0.430,0.754,0.716,��쓌,8.5,��
2019/05/15,08:40,0.738,1.064,0.739,1.350,0.987,0.429,0.753,0.716,��,7.4,��
2019/05/15,08:50,0.738,1.065,0.739,1.350,0.985,0.430,0.752,0.716,��,6.7,�L
2019/05/15,09:00,0.736,1.062,0.739,1.349,0.987,0.427,0.753,0.715,��,6.8,�L
2019/05/15,09:10,0.736,1.065,0.740,1.347,0.985,0.430,0.754,0.715,��,6.7,�L
2019/05/15,09:20,0.737,1.059,0.740,1.347,0.986,0.428,0.754,0.715,��,7.8,�L
2019/05/15,09:30,0.736,1.059,0.740,1.352,0.986,0.429,0.752,0.715,��쓌,9.5,��
2019/05/15,09:40,0.736,1.063,0.743,1.349,0.986,0.429,0.754,0.715,��,9.6,��
2019/05/15,09:50,0.736,1.060,0.741,1.350,0.987,0.429,0.754,0.714,��쓌,11.3,��
2019/05/15,10:00,0.735,1.062,0.740,1.350,0.987,0.431,0.755,0.716,��쓌,12.4,��
2019/05/15,10:10,0.737,1.067,0.741,1.351,0.989,0.430,0.753,0.715,��쓌,11.9,��
2019/05/15,10:20,0.739,1.064,0.741,1.352,0.990,0.430,0.755,0.715,��쓌,11.7,��
2019/05/15,10:30,0.739,1.065,0.741,1.352,0.991,0.430,0.755,0.715,��쓌,11.9,��
2019/05/15,10:40,0.739,1.068,0.740,1.353,0.993,0.431,0.755,0.714,��쓌,12.1,��
2019/05/15,10:50,0.738,1.067,0.743,1.351,0.991,0.431,0.757,0.716,��쓌,13.0,��
2019/05/15,11:00,0.739,1.071,0.741,1.352,0.994,0.432,0.756,0.716,��쓌,13.5,��
2019/05/15,11:10,0.740,1.071,0.741,1.351,0.994,0.430,0.756,0.716,��쓌,11.1,��
2019/05/15,11:20,0.741,1.072,0.741,1.353,0.995,0.429,0.757,0.716,��쓌,11.8,��
2019/05/15,11:30,0.742,1.073,0.742,1.352,0.994,0.426,0.757,0.717,��쓌,11.3,��
2019/05/15,11:40,0.741,1.074,0.745,1.354,0.996,0.431,0.758,0.716,��쓌,11.7,��
2019/05/15,11:50,0.741,1.074,0.743,1.353,0.997,0.430,0.757,0.716,��쓌,13.0,��
2019/05/15,12:00,0.741,1.076,0.744,1.354,0.996,0.431,0.756,0.717,��쓌,12.5,��
2019/05/15,12:10,0.740,1.077,0.743,1.355,1.000,0.431,0.758,0.715,��쓌,13.1,��
2019/05/15,12:20,0.742,1.076,0.747,1.355,1.001,0.432,0.759,0.717,��쓌,14.2,��
2019/05/15,12:30,0.741,1.077,0.748,1.354,1.000,0.432,0.759,0.716,��쓌,13.5,��
2019/05/15,12:40,0.742,1.075,0.748,1.356,1.002,0.433,0.759,0.717,��쓌,11.7,��
2019/05/15,12:50,0.744,1.075,0.746,1.356,1.001,0.431,0.758,0.716,��쓌,13.0,��
2019/05/15,13:00,0.744,1.079,0.746,1.356,0.999,0.432,0.759,0.718,��쓌,12.1,��
2019/05/15,13:10,0.744,1.077,0.747,1.357,1.003,0.432,0.757,0.717,��,11.7,��
2019/05/15,13:20,0.743,1.078,0.746,1.359,1.003,0.432,0.760,0.718,��,11.4,��
2019/05/15,13:30,0.744,1.078,0.747,1.358,1.002,0.431,0.758,0.718,��쓌,10.7,��
2019/05/15,13:40,0.745,1.077,0.748,1.359,1.003,0.433,0.756,0.718,��쓌,11.4,��
2019/05/15,13:50,0.742,1.077,0.748,1.359,1.004,0.433,0.759,0.718,��쓌,13.5,��
2019/05/15,14:00,0.745,1.078,0.747,1.358,1.003,0.433,0.758,0.717,��쓌,10.9,��
2019/05/15,14:10,0.744,1.077,0.746,1.359,1.005,0.432,0.759,0.717,��쓌,10.2,��
2019/05/15,14:20,0.745,1.078,0.745,1.357,1.004,0.434,0.760,0.717,��,10.2,��
2019/05/15,14:30,0.745,1.079,0.746,1.361,1.004,0.432,0.758,0.716,��,11.9,��
2019/05/15,14:40,0.745,1.079,0.745,1.361,1.007,0.433,0.758,0.717,��,11.3,�L
2019/05/15,14:50,0.745,1.078,0.747,1.363,1.004,0.432,0.757,0.717,��,11.9,�L
2019/05/15,15:00,0.746,1.080,0.746,1.363,1.003,0.433,0.758,0.716,��,10.8,�L
2019/05/15,15:10,0.747,1.083,0.751,1.362,1.004,0.433,0.757,0.717,��,8.7,�L
2019/05/15,15:20,0.744,1.077,0.748,1.361,1.003,0.436,0.758,0.716,��,7.7,�L
2019/05/15,15:30,0.742,1.076,0.749,1.361,1.000,0.435,0.759,0.719,��,6.4,�L
2019/05/15,15:40,0.741,1.076,0.750,1.361,0.998,0.436,0.758,0.718,��,7.6,�L
2019/05/15,15:50,0.744,1.075,0.748,1.359,0.999,0.436,0.757,0.717,��,7.9,�L
2019/05/15,16:00,0.742,1.073,0.747,1.362,0.998,0.436,0.757,0.715,��,9.3,�L
2019/05/15,16:10,0.742,1.073,0.746,1.362,0.997,0.436,0.757,0.715,��,8.5,�L
2019/05/15,16:20,0.741,1.071,0.748,1.360,0.995,0.436,0.758,0.717,��,7.9,�L
2019/05/15,16:30,0.743,1.068,0.748,1.359,0.994,0.437,0.758,0.718,��,7.7,�L
2019/05/15,16:40,0.741,1.069,0.747,1.356,0.993,0.436,0.757,0.718,��,8.0,�L
2019/05/15,16:50,0.739,1.068,0.746,1.356,0.991,0.435,0.757,0.721,��,7.6,�L
2019/05/15,17:00,0.740,1.067,0.745,1.356,0.991,0.435,0.757,0.717,��,7.8,�L
2019/05/15,17:10,0.739,1.068,0.746,1.355,0.993,0.435,0.756,0.719,��,7.8,�L
2019/05/15,17:20,0.739,1.070,0.746,1.352,0.992,0.434,0.757,0.721,��,7.1,��
2019/05/15,17:30,0.737,1.070,0.747,1.356,0.991,0.436,0.759,0.719,��,5.9,��
2019/05/15,17:40,0.740,1.067,0.745,1.357,0.991,0.434,0.757,0.718,��,6.0,��
2019/05/15,17:50,0.737,1.071,0.744,1.354,0.991,0.434,0.757,0.719,��,6.4,��
2019/05/15,18:00,0.737,1.072,0.744,1.353,0.991,0.434,0.757,0.720,��,6.3,��
2019/05/15,18:10,0.738,1.069,0.743,1.355,0.992,0.433,0.756,0.719,��,6.3,��
2019/05/15,18:20,0.737,1.069,0.743,1.354,0.989,0.433,0.758,0.720,��,6.3,��
2019/05/15,18:30,0.736,1.068,0.744,1.354,0.993,0.433,0.757,0.721,��,7.1,��
2019/05/15,18:40,0.739,1.066,0.743,1.353,0.991,0.434,0.757,0.719,��쐼,6.6,��
2019/05/15,18:50,0.740,1.066,0.743,1.354,0.992,0.432,0.758,0.719,��쐼,7.2,��
2019/05/15,19:00,0.737,1.069,0.743,1.355,0.995,0.435,0.757,0.720,��쐼,5.7,��
2019/05/15,19:10,0.739,1.069,0.744,1.354,0.994,0.434,0.757,0.718,��쐼,5.7,��
2019/05/15,19:20,0.739,1.067,0.744,1.356,0.993,0.433,0.758,0.719,��쐼,5.6,��
2019/05/15,19:30,0.739,1.068,0.744,1.354,0.990,0.434,0.759,0.718,��쐼,4.5,��
2019/05/15,19:40,0.740,1.069,0.743,1.355,0.994,0.434,0.759,0.718,��쐼,4.1,��
2019/05/15,19:50,0.739,1.070,0.744,1.356,0.992,0.435,0.758,0.718,��쐼,3.8,��
2019/05/15,20:00,0.738,1.066,0.743,1.354,0.995,0.433,0.759,0.721,�쐼,3.3,��
2019/05/15,20:10,0.739,1.067,0.742,1.355,0.993,0.432,0.759,0.719,���쐼,3.6,��
2019/05/15,20:20,0.740,1.068,0.742,1.356,0.993,0.432,0.759,0.720,�쐼,4.2,��
2019/05/15,20:30,0.738,1.065,0.744,1.354,0.994,0.434,0.759,0.718,�쐼,3.7,��
2019/05/15,20:40,0.739,1.065,0.745,1.355,0.995,0.432,0.760,0.719,�쐼,3.3,��
2019/05/15,20:50,0.737,1.067,0.742,1.354,0.992,0.433,0.758,0.718,�쐼,2.3,��
2019/05/15,21:00,0.738,1.068,0.744,1.353,0.995,0.432,0.760,0.718,��쐼,2.3,��
2019/05/15,21:10,0.737,1.069,0.743,1.355,0.992,0.433,0.758,0.718,��쐼,2.0,��
2019/05/15,21:20,0.739,1.067,0.742,1.354,0.994,0.432,0.758,0.720,��쐼,1.9,��
2019/05/15,21:30,0.738,1.069,0.743,1.355,0.992,0.431,0.759,0.719,��,0.8,��
2019/05/15,21:40,0.739,1.067,0.743,1.356,0.994,0.433,0.758,0.718,�쐼,0.6,��
2019/05/15,21:50,0.738,1.068,0.744,1.353,0.994,0.432,0.759,0.719,�쐼,1.7,��
2019/05/15,22:00,0.740,1.068,0.742,1.354,0.994,0.431,0.758,0.718,��쐼,2.3,��
2019/05/15,22:10,0.738,1.065,0.743,1.354,0.992,0.431,0.758,0.717,��쐼,2.3,��
2019/05/15,22:20,0.738,1.065,0.744,1.355,0.993,0.431,0.758,0.720,��쐼,1.9,��
2019/05/15,22:30,0.737,1.066,0.742,1.353,0.993,0.432,0.759,0.718,��쐼,2.0,��
2019/05/15,22:40,0.737,1.068,0.743,1.358,0.991,0.431,0.758,0.718,��쐼,2.0,��
2019/05/15,22:50,0.740,1.066,0.742,1.355,0.994,0.431,0.757,0.720,�쐼,2.3,��
2019/05/15,23:00,0.740,1.067,0.741,1.355,0.994,0.432,0.759,0.718,�쐼,3.2,��
2019/05/15,23:10,0.739,1.066,0.742,1.354,0.991,0.432,0.760,0.719,��쐼,3.4,��
2019/05/15,23:20,0.737,1.068,0.743,1.355,0.994,0.432,0.758,0.719,��쐼,3.0,��
2019/05/15,23:30,0.737,1.066,0.742,1.356,0.994,0.433,0.759,0.717,��,2.5,��
2019/05/15,23:40,0.741,1.065,0.742,1.359,0.992,0.432,0.759,0.719,��쓌,2.3,��
2019/05/15,23:50,0.737,1.066,0.741,1.356,0.996,0.432,0.757,0.718,��쓌,1.9,��
